Theta_e
312 314 312 311 311 311 311 311 311 311 311 311 311 311 310 310 311 311 311 311 311 311 311 306 305 304 297 288 289 301 302 297 293 291 287 285 282 281 277 279 279 278 279 281 281 282 281
313 313 311 311 311 310 310 310 310 311 311 312 311 310 310 310 310 310 310 311 311 311 310 304 304 304 293 283 297 298 293 292 291 288 285 285 282 283 279 278 277 279 279 279 280 280 280
312 311 310 310 310 312 310 310 311 310 310 312 310 309 309 309 309 309 309 310 311 310 307 302 302 299 290 288 294 293 292 289 290 288 285 286 285 281 281 277 281 280 275 278 278 279 278
310 310 309 309 309 311 311 310 310 309 311 311 309 308 308 308 308 308 309 310 310 308 303 300 301 294 284 293 291 292 292 289 291 290 288 287 286 283 280 281 279 276 273 270 277 280 280
311 309 310 309 308 310 310 310 311 310 311 310 308 308 308 308 308 308 309 310 306 306 300 299 292 289 282 294 288 290 289 287 288 288 287 289 285 279 280 275 271 273 269 271 273 279 279
309 309 308 309 308 308 309 310 311 309 309 308 307 307 307 307 307 308 309 306 303 298 296 295 292 283 288 286 290 291 290 288 285 284 284 282 279 276 275 272 264 270 270 271 270 275 277
308 309 308 308 308 308 308 309 310 309 308 307 307 306 306 306 307 307 299 291 287 286 286 282 283 283 286 290 291 288 290 286 285 281 275 278 274 272 273 274 275 273 271 270 273 277 274
307 308 309 307 307 308 308 309 310 309 309 307 306 306 306 306 307 303 294 288 289 287 281 286 287 287 289 288 283 286 288 280 279 275 276 273 272 276 278 277 275 274 271 270 274 277 274
307 307 307 307 307 307 308 308 310 309 308 307 306 306 306 305 305 296 291 291 293 293 278 282 287 285 285 286 282 282 284 281 277 274 274 270 275 278 276 274 273 273 271 271 270 273 274
307 306 306 306 307 306 306 308 308 308 307 307 306 306 306 305 295 292 289 294 293 289 270 282 281 284 286 285 280 287 285 281 278 273 275 272 276 276 274 273 274 269 275 274 271 268 262
306 307 306 307 307 306 306 307 308 307 307 306 306 305 305 303 292 290 294 295 294 285 270 280 280 287 285 281 283 282 286 281 275 276 272 270 273 274 271 273 276 272 275 273 271 267 260
308 307 308 307 307 306 307 307 307 307 307 306 305 305 304 295 292 293 294 292 290 274 267 278 280 280 280 281 281 281 280 282 280 273 274 274 278 273 273 274 274 275 269 270 262 255 251
308 308 308 307 307 307 308 308 306 307 307 305 304 304 299 296 289 294 291 285 275 270 280 276 277 278 278 276 277 275 272 268 264 264 260 269 272 275 275 267 267 264 260 258 252 251 252
307 309 309 308 308 308 307 308 307 306 307 305 304 302 295 295 293 291 287 278 267 270 272 279 278 278 274 275 274 271 264 263 272 260 255 256 257 269 273 270 262 266 262 259 255 253 258
309 309 309 309 308 308 308 307 308 307 306 304 302 292 290 292 293 289 281 269 270 276 278 276 275 269 270 275 271 267 263 263 270 263 259 257 259 272 273 273 268 267 257 267 263 249 252
310 310 310 309 309 308 308 308 308 307 306 303 293 289 287 293 291 286 275 275 277 281 280 276 268 269 260 264 264 263 264 271 267 271 271 261 259 269 272 271 270 269 270 258 257 254 248
311 311 310 310 309 309 308 308 307 306 305 301 290 284 288 292 289 279 271 270 278 282 281 272 268 269 268 264 265 261 266 272 272 270 271 257 257 261 265 256 258 261 260 264 261 260 257
312 311 311 310 309 309 308 307 307 306 302 295 289 280 288 289 275 269 270 276 283 280 280 278 276 273 269 265 262 264 267 271 273 272 261 267 263 254 259 265 265 263 260 265 259 254 253
312 312 311 311 310 309 308 308 307 305 301 292 285 279 286 286 270 273 276 278 280 278 277 270 270 275 269 268 266 267 270 274 275 270 262 264 261 257 256 259 260 255 258 260 257 258 253
312 312 312 311 311 310 309 308 307 305 301 293 285 278 278 278 278 273 272 275 273 279 276 279 276 276 266 265 269 266 269 274 275 273 278 271 256 257 256 257 252 253 257 256 255 252 252
313 312 312 312 312 311 310 309 307 305 301 292 285 279 279 273 275 277 277 275 275 274 277 278 269 271 267 266 262 263 269 271 273 275 266 262 256 252 257 262 251 256 259 259 254 258 260
313 313 313 312 312 311 311 310 307 305 302 290 282 281 280 271 278 278 279 275 275 277 274 271 268 271 271 269 270 268 270 270 268 266 262 260 259 253 258 251 249 251 259 259 261 262 261
313 313 313 312 312 311 311 310 308 306 298 286 288 287 284 280 275 273 275 277 277 278 278 279 275 270 267 271 275 275 275 273 271 267 264 262 260 255 252 253 252 255 258 255 256 257 262
313 313 313 313 312 312 311 311 309 307 299 291 287 285 280 275 276 276 278 278 277 278 276 278 279 274 278 277 275 274 273 272 269 268 268 256 259 258 254 254 248 261 258 258 258 260 260
312 312 312 312 312 312 311 311 310 307 302 294 290 285 281 278 276 278 278 277 278 279 279 279 279 280 277 270 266 259 260 262 260 261 265 264 260 258 253 246 257 262 264 264 261 261 264
311 311 311 311 311 311 311 311 311 308 305 296 291 292 284 279 279 281 278 279 275 275 273 274 277 278 274 270 263 255 255 256 258 261 263 261 258 261 252 256 250 258 264 265 264 258 268
310 310 310 310 310 310 310 310 310 310 307 298 292 293 285 279 281 281 277 276 279 276 273 272 272 270 273 264 259 255 256 258 258 255 255 252 250 258 254 260 259 262 270 272 258 260 260
309 309 309 310 310 310 310 310 310 310 308 301 293 292 288 282 283 281 282 277 277 277 273 275 274 270 267 263 257 258 258 261 257 260 258 256 252 253 254 252 254 267 271 267 267 267 264
307 307 308 308 309 309 309 309 309 309 309 305 287 291 293 284 283 283 284 285 284 283 279 277 275 271 272 266 264 261 261 257 257 257 265 257 262 259 262 261 265 267 269 268 265 269 267
Wind_Speed
13 14 17 16 16 16 16 17 18 18 20 20 21 22 24 26 27 27 27 26 25 23 20 13 9 5 2 2 1 3 5 4 3 4 5 4 3 1 2 4 5 10 9 5 8 14 17
12 13 15 15 15 15 16 16 18 19 20 20 21 23 25 26 27 28 28 27 24 21 15 8 5 5 2 1 1 6 5 2 3 3 3 4 1 3 5 6 5 3 5 8 6 15 16
14 15 14 14 14 14 14 17 17 18 19 18 21 24 26 27 28 28 29 27 26 20 7 3 2 1 2 1 1 5 3 2 1 1 2 2 3 1 2 5 6 6 15 10 9 6 7
13 14 13 14 14 16 15 16 17 19 19 18 22 24 26 27 28 30 30 28 26 15 2 2 2 2 1 1 4 2 1 3 2 3 3 5 3 3 3 5 6 6 2 6 3 13 4
14 14 13 15 14 15 16 16 17 18 18 19 22 24 27 27 28 29 29 27 14 6 4 2 3 2 3 1 2 2 1 3 4 2 3 2 3 2 4 4 4 2 11 19 17 13 11
14 13 14 13 16 14 15 16 17 18 18 20 22 24 27 28 28 29 26 23 8 5 7 1 3 3 3 4 4 5 3 1 2 4 6 3 2 1 2 4 8 16 19 17 23 17 17
13 13 14 14 16 15 15 16 16 19 19 20 22 24 27 28 27 22 13 6 9 7 10 0 7 4 3 7 3 3 2 1 1 2 3 3 3 10 12 5 7 13 17 18 20 20 12
13 14 13 14 15 14 15 16 16 17 18 20 22 25 28 30 26 15 5 7 3 3 9 4 5 5 6 1 3 3 1 3 1 6 2 4 12 11 6 6 13 11 16 15 17 13 14
13 14 15 14 15 16 15 16 19 15 17 19 22 24 27 30 16 7 7 4 2 3 2 7 4 3 3 1 3 4 3 1 3 3 2 4 16 12 5 13 17 12 13 11 16 21 14
13 14 15 15 16 16 17 15 17 13 15 18 21 23 24 28 5 3 3 4 3 5 5 2 1 1 1 1 3 3 2 2 3 4 5 8 4 8 12 14 15 15 9 11 16 14 11
14 15 15 15 14 15 16 16 15 13 14 16 21 23 25 12 4 2 4 5 3 3 5 2 1 1 2 4 8 3 5 3 5 13 4 9 11 14 10 10 14 8 13 11 18 13 4
13 14 14 15 15 16 15 14 16 15 13 15 18 23 23 4 2 1 5 4 2 6 6 2 2 4 6 5 5 8 5 6 5 3 4 4 9 3 4 6 8 10 9 16 5 4 4
15 15 15 15 15 14 16 15 15 16 12 14 16 21 10 2 4 6 3 3 6 5 4 8 5 5 14 6 4 7 6 8 3 9 6 7 5 5 5 14 7 9 8 6 7 6 7
16 16 15 15 15 16 15 15 16 16 11 13 17 19 6 1 5 5 3 7 4 2 3 3 7 14 3 9 4 7 5 4 7 6 2 4 10 6 14 12 6 14 5 2 6 3 9
17 16 16 16 17 15 16 15 14 14 9 10 11 4 3 4 5 2 5 4 5 2 2 7 8 5 4 1 2 8 2 3 4 3 3 6 7 17 16 8 3 4 4 6 5 1 4
18 18 18 17 17 17 15 14 14 13 7 7 2 3 4 5 5 4 6 4 2 1 3 3 2 2 3 4 5 7 4 3 4 3 5 6 13 7 4 7 4 2 6 6 4 5 5
20 20 20 19 19 17 16 15 13 12 6 4 3 4 3 5 3 5 4 6 3 3 3 4 4 5 4 3 3 3 5 5 5 2 4 4 4 10 7 2 7 7 5 4 2 2 3
23 23 23 23 21 19 17 15 13 9 5 4 1 3 2 3 4 0 2 5 3 3 1 5 3 6 6 3 3 4 7 7 5 4 1 5 4 4 12 10 6 4 6 3 2 8 2
24 25 24 24 24 21 18 16 12 7 11 4 2 3 2 4 2 3 4 4 2 4 4 3 4 7 3 5 5 5 5 5 3 3 1 3 4 6 12 9 7 3 4 3 1 1 7
25 26 25 25 25 21 20 18 13 10 17 4 2 3 4 4 0 4 1 4 4 1 4 4 5 4 3 4 7 8 7 4 3 5 18 4 1 8 8 13 3 5 10 1 5 1 4
25 25 25 25 24 22 21 19 16 17 21 5 3 6 3 3 4 5 5 5 4 3 4 5 4 6 7 5 4 8 9 6 9 10 2 6 5 5 9 17 4 9 17 11 8 9 5
25 25 25 25 24 23 22 21 22 20 23 2 5 3 1 2 2 7 8 7 8 4 7 6 7 7 8 9 11 20 13 10 6 4 4 1 5 3 10 3 4 6 10 10 12 6 7
24 25 25 24 24 23 23 21 25 25 20 4 3 2 4 6 5 6 7 9 11 7 9 10 8 5 7 18 15 16 13 10 10 9 4 3 3 2 8 3 4 4 7 5 5 4 4
25 25 24 24 24 23 23 21 26 29 30 5 4 4 4 6 10 11 9 12 14 15 9 6 10 7 5 3 2 6 8 10 7 9 9 5 4 3 6 6 4 8 2 5 7 8 6
25 24 24 24 24 23 23 22 25 31 37 8 6 6 5 6 7 10 10 9 8 11 15 12 9 7 6 6 4 7 6 7 5 4 9 7 4 3 2 3 7 6 4 2 4 8 6
25 25 24 24 22 23 23 21 21 29 36 12 7 7 4 2 11 9 10 12 7 5 1 5 3 4 6 3 3 3 4 3 6 9 4 4 3 2 1 4 6 9 6 4 4 5 6
26 25 25 24 24 22 21 20 20 23 32 16 6 16 4 4 5 9 7 7 6 4 2 3 3 0 2 3 3 4 5 4 2 3 4 3 3 9 6 8 9 8 5 6 5 8 5
27 27 26 26 25 23 22 21 21 21 28 20 8 16 12 6 4 7 9 8 5 5 6 5 3 0 2 4 4 5 4 6 2 4 6 7 4 5 1 0 9 6 4 4 8 5 4
29 28 27 27 25 24 23 22 22 20 22 30 4 11 10 3 2 3 6 10 10 10 6 7 3 5 6 3 2 1 3 1 4 4 2 3 9 6 9 9 7 6 9 7 5 6 4
Wind_Direction
24 27 25 17 16 16 16 11 9 7 3 2 1 358 354 349 344 342 339 337 335 335 334 339 336 353 34 25 88 135 100 51 359 11 46 22 55 62 213 247 315 248 261 282 302 301 291
7 30 18 21 23 20 13 10 7 4 360 359 359 354 350 345 342 339 337 335 334 334 334 344 352 358 39 57 121 132 128 39 53 56 11 29 18 288 253 240 201 272 276 278 260 277 282
21 12 15 14 9 6 12 4 5 1 359 2 355 350 346 344 341 338 335 333 334 329 337 342 340 23 62 63 173 149 151 186 208 161 304 222 156 109 356 274 290 284 298 293 257 261 266
17 14 13 8 359 5 9 3 359 359 353 3 355 348 343 342 340 337 333 330 333 333 70 25 48 98 139 359 130 151 239 305 336 246 220 231 219 209 207 305 326 301 303 316 2 296 253
10 8 14 6 360 356 357 355 356 357 358 0 354 347 345 343 340 337 331 326 336 50 52 64 68 90 79 129 88 329 308 274 312 314 298 230 120 209 348 331 316 255 294 311 313 321 310
359 8 359 359 356 346 350 348 357 352 359 357 352 350 347 343 342 338 334 331 6 25 351 107 36 81 27 317 319 318 288 263 286 330 336 93 64 336 352 61 300 303 309 302 309 320 313
354 359 355 355 353 350 345 343 353 351 353 353 350 350 349 342 344 347 355 7 11 356 36 38 295 273 263 302 259 244 287 319 160 11 306 306 305 272 281 253 268 294 296 300 300 308 308
350 344 347 347 345 348 343 338 344 349 350 348 348 348 348 341 341 20 35 63 80 230 317 314 259 258 260 332 323 288 7 319 269 271 317 358 262 274 293 295 305 301 292 293 300 304 309
342 341 336 339 339 342 342 337 338 345 345 345 346 346 344 340 341 47 81 62 341 112 269 294 230 260 291 21 303 276 141 26 254 282 266 182 272 307 287 320 305 301 293 295 307 312 298
330 334 333 332 331 337 336 335 335 340 339 341 341 343 346 339 53 337 55 337 48 109 60 292 353 24 358 229 302 326 25 349 328 276 302 266 279 327 317 307 306 301 295 307 311 323 303
325 324 327 323 323 329 331 332 330 327 331 338 337 338 345 353 278 14 330 334 134 65 2 253 78 265 326 70 281 9 335 37 234 295 105 261 312 307 319 299 318 288 314 301 307 290 34
315 315 311 314 320 321 317 319 327 317 322 336 337 332 343 353 0 255 315 316 88 38 263 325 70 19 2 304 345 344 7 19 317 16 342 296 272 193 224 355 317 329 321 323 24 88 26
302 301 302 309 304 314 309 310 319 320 318 326 332 330 342 356 309 313 333 63 13 123 335 331 328 4 334 339 1 26 351 11 34 357 348 321 339 335 44 341 332 2 358 304 347 0 224
290 291 293 292 296 296 299 307 315 319 311 320 333 332 326 92 305 326 47 45 106 252 314 353 347 318 332 11 19 340 10 360 30 74 349 12 329 10 336 308 263 314 182 222 288 260 287
277 278 280 285 289 295 298 301 302 310 301 315 344 331 333 297 327 29 61 53 206 235 269 333 330 30 319 225 23 8 334 207 148 145 102 329 260 309 292 336 77 340 18 233 259 64 43
265 268 269 270 272 277 283 285 297 306 293 326 344 343 285 315 347 52 78 242 147 176 103 73 215 112 263 295 31 29 325 220 160 121 155 260 296 283 289 3 308 8 277 339 348 315 302
263 264 265 265 264 265 273 280 289 314 304 352 29 332 268 339 43 48 139 227 252 162 113 133 232 283 245 296 161 236 243 262 176 251 87 150 166 283 7 227 254 334 330 298 174 118 318
260 258 259 260 259 256 260 269 279 299 114 79 77 300 291 32 52 44 166 199 220 245 175 240 249 224 213 211 251 245 230 217 146 94 317 229 246 271 256 287 203 198 217 218 29 308 259
264 264 260 259 258 254 251 247 251 284 158 124 226 257 331 83 180 227 290 274 245 156 225 193 249 208 128 200 304 234 257 245 104 103 272 242 254 311 333 347 357 55 299 78 109 95 227
265 266 267 266 263 256 248 234 226 182 159 111 143 301 311 60 143 128 168 247 267 272 238 201 238 201 104 228 226 263 246 298 249 309 300 90 80 185 238 243 156 320 283 222 153 187 236
266 268 268 268 266 260 248 228 206 184 167 116 175 230 200 228 233 186 167 178 207 260 215 201 308 211 176 261 242 236 264 269 286 288 99 119 245 183 249 257 184 257 267 270 186 219 228
269 269 270 268 264 258 251 227 200 187 169 157 172 185 170 233 173 181 199 201 205 204 183 240 214 217 200 224 224 281 287 284 232 323 127 273 258 132 286 348 165 253 262 248 244 253 244
272 273 273 270 268 261 253 232 201 186 155 169 183 148 157 179 171 151 206 199 206 181 224 228 194 173 226 237 236 253 258 245 232 231 177 196 212 40 271 313 339 341 235 222 261 226 192
272 272 272 270 268 264 258 239 204 190 184 145 164 134 161 244 192 198 198 200 208 199 228 216 213 198 222 71 339 297 282 271 237 224 172 175 155 152 263 352 1 244 241 184 211 253 211
275 274 271 270 268 266 260 253 221 200 190 182 156 155 168 244 194 211 205 207 216 232 246 245 222 211 116 55 8 345 333 5 309 245 195 176 146 263 204 198 286 319 274 203 159 279 197
273 271 271 268 267 264 260 255 243 211 194 193 178 157 165 195 220 183 196 209 215 207 309 237 23 96 85 103 95 210 246 200 300 327 47 90 134 164 70 243 232 229 258 162 111 291 219
271 270 270 270 268 261 257 253 245 227 203 187 191 180 141 215 200 155 181 177 158 155 174 190 173 55 73 132 151 187 248 178 237 187 241 340 356 213 242 257 273 232 243 126 85 247 248
276 273 268 266 264 259 256 253 247 236 210 190 200 186 182 203 215 192 164 143 140 171 161 151 137 203 90 162 148 226 193 216 134 214 195 176 158 218 106 89 277 200 132 176 222 284 233
279 275 272 267 260 255 252 251 247 240 226 198 180 186 192 199 249 213 227 193 180 161 162 179 189 161 166 135 215 90 240 132 166 247 126 292 191 196 184 217 226 215 231 243 190 221 252